User: anonymous   Login
Location: White Ridge parking lot
(35.4984°N, 106.8413°W)
Time: 12:27:56
(UTC-06:00)
Language:

SRMSAT - Orbit

View from above orbital plane
View from above orbital plane
View from above satellite
View from above satellite

Ground track
Ground track

The orbit data is extracted from the following two-line orbital elements,

1 37841U 11058D   19287.49361869  .00000298  00000-0  18579-4 0  9994
2 37841  19.9732  39.6175 0012002  50.8590  26.0864 14.10641004413341
Epoch (UTC): 14 October 2019 11:50:48
Eccentricity: 0.0012002
inclination: 19.9732°
perigee height: 848 km
apogee height: 866 km
right ascension of ascending node: 39.6175°
argument of perigee: 50.8590°
revolutions per day: 14.10641004
mean anomaly at epoch: 26.0864°
orbit number at epoch: 41334

The dashed part of the orbit path shows where the satellite is in the earth's shadow,  

DLR